| time (UTC) | temp F | wind direction | speed MPH | gust MPH | rain 1hr in | rain 24hr in | rain mn in | humidity % | barometer mb |
| 20260905120605 | 79 | 177 | 6.0 | 8.0 | 0.00 | 0.00 | 0.00 | 72 | 1014.1 |
| 20260905120104 | 79 | 173 | 5.0 | 9.0 | 0.00 | 0.00 | 0.00 | 71 | 1014.0 |
| 20260905115105 | 80 | 182 | 6.0 | 9.0 | 0.00 | 0.00 | 0.00 | 71 | 1013.9 |
| 20260905114605 | 80 | 175 | 5.0 | 9.0 | 0.00 | 0.00 | 0.00 | 71 | 1013.9 |
| 20260905114105 | 80 | 177 | 6.0 | 9.0 | 0.00 | 0.00 | 0.00 | 71 | 1013.9 |
| 20260905113604 | 80 | 182 | 6.0 | 8.0 | 0.00 | 0.00 | 0.00 | 70 | 1013.9 |
| 20260905113105 | 80 | 182 | 6.0 | 8.0 | 0.00 | 0.00 | 0.00 | 70 | 1013.9 |
| 20260905112604 | 80 | 188 | 6.0 | 8.0 | 0.00 | 0.00 | 0.00 | 70 | 1013.9 |
| 20260905112105 | 80 | 186 | 6.0 | 9.0 | 0.00 | 0.00 | 0.00 | 70 | 1014.0 |
| 20260905111605 | 80 | 189 | 5.0 | 9.0 | 0.00 | 0.00 | 0.00 | 69 | 1014.0 |
| 20260905111104 | 80 | 184 | 5.0 | 8.0 | 0.00 | 0.00 | 0.00 | 69 | 1014.0 |
| 20260905110605 | 81 | 185 | 6.0 | 9.0 | 0.00 | 0.00 | 0.00 | 69 | 1014.0 |
| 20260905110105 | 81 | 193 | 6.0 | 9.0 | 0.00 | 0.00 | 0.00 | 69 | 1014.1 |
| 20260905105605 | 81 | 181 | 6.0 | 9.0 | 0.00 | 0.00 | 0.00 | 69 | 1014.1 |
| 20260905105104 | 81 | 184 | 6.0 | 9.0 | 0.00 | 0.00 | 0.00 | 69 | 1014.0 |
| 20260905104104 | 81 | 186 | 6.0 | 9.0 | 0.00 | 0.00 | 0.00 | 69 | 1014.1 |
| 20260905103604 | 81 | 184 | 6.0 | 9.0 | 0.00 | 0.00 | 0.00 | 69 | 1014.1 |
| 20260905103105 | 81 | 185 | 6.0 | 8.0 | 0.00 | 0.00 | 0.00 | 68 | 1014.2 |
| 20260905102104 | 82 | 189 | 5.0 | 9.0 | 0.00 | 0.00 | 0.00 | 68 | 1013.9 |
| 20260905101105 | 82 | 182 | 6.0 | 10.0 | 0.00 | 0.00 | 0.00 | 67 | 1013.9 |
| 20260905100604 | 82 | 187 | 6.0 | 10.0 | 0.00 | 0.00 | 0.00 | 67 | 1013.8 |
| 20260905100104 | 82 | 183 | 5.0 | 9.0 | 0.00 | 0.00 | 0.00 | 67 | 1013.9 |
| 20260905095604 | 82 | 178 | 6.0 | 12.0 | 0.00 | 0.00 | 0.00 | 66 | 1013.8 |
| 20260905094604 | 83 | 173 | 7.0 | 12.0 | 0.00 | 0.00 | 0.00 | 66 | 1013.9 |
| 20260905094105 | 83 | 172 | 6.0 | 10.0 | 0.00 | 0.00 | 0.00 | 66 | 1013.9 |
| 20260905093105 | 83 | 174 | 7.0 | 12.0 | 0.00 | 0.00 | 0.00 | 66 | 1013.9 |
| 20260905092104 | 83 | 170 | 7.0 | 12.0 | 0.00 | 0.00 | 0.00 | 65 | 1013.8 |
| 20260905091104 | 83 | 175 | 7.0 | 12.0 | 0.00 | 0.00 | 0.00 | 65 | 1013.9 |
| 20260905090605 | 83 | 175 | 7.0 | 12.0 | 0.00 | 0.00 | 0.00 | 65 | 1013.9 |
| 20260905090105 | 83 | 182 | 6.0 | 12.0 | 0.00 | 0.00 | 0.00 | 65 | 1013.9 |
| 20260905085605 | 83 | 175 | 7.0 | 12.0 | 0.00 | 0.00 | 0.00 | 65 | 1013.9 |
| 20260905085105 | 83 | 181 | 6.0 | 12.0 | 0.00 | 0.00 | 0.00 | 65 | 1013.9 |
| 20260905084604 | 84 | 174 | 6.0 | 12.0 | 0.00 | 0.00 | 0.00 | 64 | 1013.9 |
| 20260905084105 | 84 | 179 | 7.0 | 12.0 | 0.00 | 0.00 | 0.00 | 64 | 1013.9 |
| 20260905083604 | 84 | 183 | 7.0 | 12.0 | 0.00 | 0.00 | 0.00 | 64 | 1013.8 |
| 20260905083105 | 84 | 183 | 7.0 | 12.0 | 0.00 | 0.00 | 0.00 | 64 | 1013.8 |
| 20260905082605 | 84 | 190 | 6.0 | 12.0 | 0.00 | 0.00 | 0.00 | 64 | 1013.7 |
| 20260905082105 | 84 | 176 | 7.0 | 14.0 | 0.00 | 0.00 | 0.00 | 64 | 1013.6 |
| 20260905081605 | 84 | 195 | 8.0 | 15.0 | 0.00 | 0.00 | 0.00 | 64 | 1013.6 |
| 20260905080604 | 85 | 175 | 9.0 | 15.0 | 0.00 | 0.00 | 0.00 | 63 | 1013.5 |
| 20260905080104 | 85 | 173 | 9.0 | 15.0 | 0.00 | 0.00 | 0.00 | 63 | 1013.5 |
| 20260905075104 | 85 | 168 | 10.0 | 16.0 | 0.00 | 0.00 | 0.00 | 62 | 1013.4 |
| 20260905074605 | 85 | 182 | 10.0 | 16.0 | 0.00 | 0.00 | 0.00 | 62 | 1013.4 |
| 20260905073605 | 85 | 176 | 10.0 | 16.0 | 0.00 | 0.00 | 0.00 | 62 | 1013.4 |
| 20260905073105 | 85 | 169 | 10.0 | 16.0 | 0.00 | 0.00 | 0.00 | 62 | 1013.5 |
| 20260905072104 | 86 | 173 | 12.0 | 20.0 | 0.00 | 0.00 | 0.00 | 61 | 1013.6 |
| 20260905071105 | 86 | 182 | 12.0 | 16.0 | 0.00 | 0.00 | 0.00 | 61 | 1013.6 |
| 20260905070605 | 86 | 169 | 10.0 | 15.0 | 0.00 | 0.00 | 0.00 | 60 | 1013.6 |
| 20260905070105 | 86 | 170 | 10.0 | 15.0 | 0.00 | 0.00 | 0.00 | 60 | 1013.6 |
| 20260905065605 | 86 | 174 | 9.0 | 15.0 | 0.00 | 0.00 | 0.00 | 60 | 1013.7 |
| 20260905065104 | 86 | 172 | 9.0 | 15.0 | 0.00 | 0.00 | 0.00 | 60 | 1013.7 |
| 20260905064604 | 86 | 162 | 10.0 | 16.0 | 0.00 | 0.00 | 0.00 | 60 | 1013.7 |
| 20260905064104 | 86 | 162 | 9.0 | 16.0 | 0.00 | 0.00 | 0.00 | 60 | 1013.7 |
| 20260905063605 | 87 | 179 | 10.0 | 15.0 | 0.00 | 0.00 | 0.00 | 60 | 1013.7 |
| 20260905062604 | 87 | 169 | 9.0 | 16.0 | 0.00 | 0.00 | 0.00 | 60 | 1013.8 |
| 20260905062104 | 87 | 160 | 10.0 | 16.0 | 0.00 | 0.00 | 0.00 | 59 | 1013.8 |
| 20260905061604 | 87 | 175 | 9.0 | 13.0 | 0.00 | 0.00 | 0.00 | 59 | 1013.8 |
| 20260905061105 | 87 | 177 | 9.0 | 15.0 | 0.00 | 0.00 | 0.00 | 59 | 1013.8 |
| 20260905060604 | 87 | 171 | 9.0 | 17.0 | 0.00 | 0.00 | 0.00 | 59 | 1013.8 |
| 20260905060104 | 87 | 171 | 10.0 | 17.0 | 0.00 | 0.00 | 0.00 | 58 | 1013.8 |
| 20260905055604 | 87 | 165 | 8.0 | 20.0 | 0.00 | 0.00 | 0.00 | 58 | 1013.8 |
| 20260905055104 | 87 | 168 | 7.0 | 20.0 | 0.00 | 0.00 | 0.00 | 58 | 1013.8 |
| 20260905054604 | 87 | 148 | 9.0 | 20.0 | 0.00 | 0.00 | 0.00 | 58 | 1013.8 |
| 20260905053605 | 88 | 162 | 10.0 | 14.0 | 0.00 | 0.00 | 0.00 | 57 | 1013.8 |
| 20260905052604 | 88 | 171 | 9.0 | 15.0 | 0.00 | 0.00 | 0.00 | 57 | 1013.8 |
| 20260905052104 | 88 | 151 | 10.0 | 14.0 | 0.00 | 0.00 | 0.00 | 57 | 1013.8 |
| 20260905051604 | 88 | 161 | 9.0 | 12.0 | 0.00 | 0.00 | 0.00 | 57 | 1013.8 |
| 20260905051105 | 88 | 159 | 8.0 | 14.0 | 0.00 | 0.00 | 0.00 | 57 | 1013.8 |
| 20260905050604 | 88 | 156 | 7.0 | 15.0 | 0.00 | 0.00 | 0.00 | 56 | 1013.8 |
| 20260905050104 | 88 | 158 | 10.0 | 15.0 | 0.00 | 0.00 | 0.00 | 56 | 1013.8 |
| 20260905045604 | 89 | 172 | 9.0 | 16.0 | 0.00 | 0.00 | 0.00 | 56 | 1013.8 |
| 20260905045105 | 89 | 160 | 9.0 | 16.0 | 0.00 | 0.00 | 0.00 | 56 | 1013.7 |
| 20260905044604 | 89 | 164 | 10.0 | 16.0 | 0.00 | 0.00 | 0.00 | 56 | 1013.7 |
| 20260905044104 | 89 | 175 | 9.0 | 16.0 | 0.00 | 0.00 | 0.00 | 56 | 1013.8 |
| 20260905043604 | 89 | 165 | 9.0 | 16.0 | 0.00 | 0.00 | 0.00 | 55 | 1013.8 |
| 20260905043104 | 89 | 160 | 10.0 | 16.0 | 0.00 | 0.00 | 0.00 | 55 | 1013.9 |
| 20260905042104 | 90 | 164 | 10.0 | 16.0 | 0.00 | 0.00 | 0.00 | 55 | 1013.8 |
| 20260905040604 | 90 | 173 | 10.0 | 16.0 | 0.00 | 0.00 | 0.00 | 54 | 1013.8 |
| 20260905040104 | 90 | 162 | 9.0 | 17.0 | 0.00 | 0.00 | 0.00 | 54 | 1013.8 |
| 20260905035605 | 91 | 163 | 12.0 | 17.0 | 0.00 | 0.00 | 0.00 | 53 | 1013.7 |
| 20260905035104 | 91 | 158 | 10.0 | 20.0 | 0.00 | 0.00 | 0.00 | 53 | 1013.7 |
| 20260905034604 | 91 | 162 | 12.0 | 20.0 | 0.00 | 0.00 | 0.00 | 53 | 1013.7 |
| 20260905033104 | 91 | 156 | 10.0 | 17.0 | 0.00 | 0.00 | 0.00 | 52 | 1013.6 |
| 20260905032604 | 91 | 162 | 10.0 | 16.0 | 0.00 | 0.00 | 0.00 | 52 | 1013.5 |
| 20260905032105 | 92 | 141 | 9.0 | 16.0 | 0.00 | 0.00 | 0.00 | 52 | 1013.5 |
| 20260905031604 | 92 | 161 | 9.0 | 13.0 | 0.00 | 0.00 | 0.00 | 51 | 1013.4 |
| 20260905030604 | 92 | 166 | 8.0 | 18.0 | 0.00 | 0.00 | 0.00 | 51 | 1013.2 |
| 20260905030104 | 92 | 148 | 9.0 | 18.0 | 0.00 | 0.00 | 0.00 | 51 | 1013.1 |
| 20260905025604 | 92 | 143 | 11.0 | 18.0 | 0.00 | 0.00 | 0.00 | 50 | 1013.0 |
| 20260905025105 | 92 | 149 | 10.0 | 13.0 | 0.00 | 0.00 | 0.00 | 50 | 1012.9 |
| 20260905024604 | 92 | 152 | 9.0 | 15.0 | 0.00 | 0.00 | 0.00 | 50 | 1012.8 |
| 20260905024104 | 93 | 158 | 10.0 | 15.0 | 0.00 | 0.00 | 0.00 | 50 | 1012.8 |
| 20260905023605 | 93 | 155 | 7.0 | 15.0 | 0.00 | 0.00 | 0.00 | 50 | 1012.7 |
| 20260905022104 | 93 | 158 | 8.0 | 20.0 | 0.00 | 0.00 | 0.00 | 49 | 1012.4 |
| 20260905021104 | 93 | 152 | 10.0 | 14.0 | 0.00 | 0.00 | 0.00 | 49 | 1012.2 |
| 20260905020604 | 93 | 151 | 9.0 | 16.0 | 0.00 | 0.00 | 0.00 | 49 | 1012.2 |
| 20260905020105 | 94 | 157 | 7.0 | 16.0 | 0.00 | 0.00 | 0.00 | 49 | 1012.1 |
| 20260905015604 | 94 | 152 | 9.0 | 14.0 | 0.00 | 0.00 | 0.00 | 49 | 1012.1 |
| 20260905015104 | 94 | 146 | 9.0 | 14.0 | 0.00 | 0.00 | 0.00 | 48 | 1012.0 |
| 20260905014105 | 94 | 153 | 8.0 | 12.0 | 0.00 | 0.00 | 0.00 | 49 | 1011.8 |
| 20260905013604 | 94 | 156 | 6.0 | 12.0 | 0.00 | 0.00 | 0.00 | 49 | 1011.8 |
| 20260905012605 | 94 | 152 | 7.0 | 15.0 | 0.00 | 0.00 | 0.00 | 48 | 1011.7 |
| 20260905012104 | 95 | 150 | 9.0 | 15.0 | 0.00 | 0.00 | 0.00 | 48 | 1011.6 |
| 20260905011604 | 95 | 156 | 10.0 | 15.0 | 0.00 | 0.00 | 0.00 | 48 | 1011.6 |
| 20260905010604 | 95 | 154 | 8.0 | 12.0 | 0.00 | 0.00 | 0.00 | 48 | 1011.4 |
| 20260905010104 | 95 | 156 | 7.0 | 13.0 | 0.00 | 0.00 | 0.00 | 47 | 1011.3 |
| 20260905005604 | 95 | 150 | 8.0 | 16.0 | 0.00 | 0.00 | 0.00 | 47 | 1011.3 |
| 20260905005104 | 96 | 142 | 8.0 | 17.0 | 0.00 | 0.00 | 0.00 | 47 | 1011.3 |
| 20260905004606 | 96 | 148 | 11.0 | 17.0 | 0.00 | 0.00 | 0.00 | 46 | 1011.3 |
| 20260905004104 | 96 | 153 | 8.0 | 14.0 | 0.00 | 0.00 | 0.00 | 46 | 1011.2 |
| 20260905003605 | 96 | 152 | 9.0 | 14.0 | 0.00 | 0.00 | 0.00 | 46 | 1011.2 |
| 20260905003104 | 97 | 141 | 10.0 | 15.0 | 0.00 | 0.00 | 0.00 | 46 | 1011.2 |
| 20260905002604 | 97 | 143 | 10.0 | 16.0 | 0.00 | 0.00 | 0.00 | 45 | 1011.2 |
| 20260905001604 | 97 | 154 | 12.0 | 16.0 | 0.00 | 0.00 | 0.00 | 45 | 1011.1 |
| 20260905001104 | 97 | 136 | 11.0 | 16.0 | 0.00 | 0.00 | 0.00 | 45 | 1011.2 |
| 20260905000604 | 98 | 157 | 9.0 | 13.0 | 0.00 | 0.00 | 0.00 | 44 | 1011.1 |
| 20260905000104 | 98 | 149 | 10.0 | 15.0 | 0.00 | 0.00 | 0.00 | 44 | 1011.1 |
| 20260904235605 | 98 | 154 | 9.0 | 18.0 | 0.00 | 0.00 | 0.00 | 44 | 1011.1 |
| 20260904235104 | 98 | 130 | 10.0 | 18.0 | 0.00 | 0.00 | 0.00 | 44 | 1011.1 |
| 20260904233604 | 99 | 150 | 11.0 | 18.0 | 0.00 | 0.00 | 0.00 | 43 | 1011.1 |
| 20260904233104 | 99 | 148 | 12.0 | 18.0 | 0.00 | 0.00 | 0.00 | 43 | 1011.1 |
| 20260904232104 | 100 | 136 | 9.0 | 16.0 | 0.00 | 0.00 | 0.00 | 43 | 1011.1 |
| 20260904231104 | 100 | 162 | 7.0 | 16.0 | 0.00 | 0.00 | 0.00 | 43 | 1011.0 |
| 20260904230104 | 100 | 142 | 10.0 | 17.0 | 0.00 | 0.00 | 0.00 | 42 | 1011.1 |
| 20260904225604 | 100 | 140 | 11.0 | 17.0 | 0.00 | 0.00 | 0.00 | 42 | 1011.1 |
| 20260904225104 | 100 | 139 | 7.0 | 16.0 | 0.00 | 0.00 | 0.00 | 43 | 1011.0 |
| 20260904224604 | 100 | 134 | 10.0 | 21.0 | 0.00 | 0.00 | 0.00 | 43 | 1011.0 |
| 20260904224105 | 100 | 155 | 11.0 | 21.0 | 0.00 | 0.00 | 0.00 | 43 | 1010.9 |
| 20260904223604 | 100 | 149 | 12.0 | 18.0 | 0.00 | 0.00 | 0.00 | 43 | 1011.0 |
| 20260904223105 | 100 | 151 | 10.0 | 17.0 | 0.00 | 0.00 | 0.00 | 43 | 1011.0 |
| 20260904221604 | 100 | 132 | 13.0 | 18.0 | 0.00 | 0.00 | 0.00 | 42 | 1011.1 |
| 20260904221105 | 101 | 128 | 10.0 | 16.0 | 0.00 | 0.00 | 0.00 | 42 | 1011.1 |
| 20260904220604 | 101 | 130 | 10.0 | 16.0 | 0.00 | 0.00 | 0.00 | 42 | 1011.1 |
| 20260904220104 | 101 | 131 | 10.0 | 20.0 | 0.00 | 0.00 | 0.00 | 42 | 1011.1 |
| 20260904215604 | 101 | 130 | 11.0 | 20.0 | 0.00 | 0.00 | 0.00 | 42 | 1011.2 |
| 20260904215104 | 101 | 152 | 11.0 | 16.0 | 0.00 | 0.00 | 0.00 | 42 | 1011.1 |
| 20260904214604 | 101 | 174 | 10.0 | 18.0 | 0.00 | 0.00 | 0.00 | 42 | 1011.2 |
| 20260904214104 | 101 | 157 | 10.0 | 18.0 | 0.00 | 0.00 | 0.00 | 42 | 1011.3 |
| 20260904213604 | 100 | 140 | 12.0 | 20.0 | 0.00 | 0.00 | 0.00 | 43 | 1011.3 |
| 20260904213104 | 100 | 133 | 9.0 | 22.0 | 0.00 | 0.00 | 0.00 | 43 | 1011.3 |
| 20260904212604 | 101 | 175 | 12.0 | 22.0 | 0.00 | 0.00 | 0.00 | 42 | 1011.4 |
| 20260904212104 | 101 | 127 | 10.0 | 20.0 | 0.00 | 0.00 | 0.00 | 43 | 1011.5 |
| 20260904211604 | 101 | 177 | 14.0 | 22.0 | 0.00 | 0.00 | 0.00 | 42 | 1011.5 |
| 20260904210604 | 101 | 144 | 13.0 | 20.0 | 0.00 | 0.00 | 0.00 | 42 | 1011.5 |
| 20260904210104 | 101 | 143 | 10.0 | 18.0 | 0.00 | 0.00 | 0.00 | 42 | 1011.5 |
| 20260904205104 | 101 | 137 | 10.0 | 16.0 | 0.00 | 0.00 | 0.00 | 41 | 1011.7 |
| 20260904204605 | 102 | 164 | 9.0 | 20.0 | 0.00 | 0.00 | 0.00 | 40 | 1011.7 |
| 20260904204104 | 102 | 175 | 12.0 | 20.0 | 0.00 | 0.00 | 0.00 | 39 | 1011.8 |
| 20260904203604 | 101 | 137 | 12.0 | 18.0 | 0.00 | 0.00 | 0.00 | 40 | 1011.8 |
| 20260904203104 | 101 | 156 | 4.0 | 20.0 | 0.00 | 0.00 | 0.00 | 42 | 1011.8 |
| 20260904202604 | 101 | 156 | 13.0 | 22.0 | 0.00 | 0.00 | 0.00 | 40 | 1011.9 |
| 20260904202104 | 101 | 156 | 13.0 | 22.0 | 0.00 | 0.00 | 0.00 | 41 | 1012.0 |
| 20260904201104 | 101 | 151 | 12.0 | 21.0 | 0.00 | 0.00 | 0.00 | 41 | 1012.1 |
| 20260904200605 | 101 | 168 | 14.0 | 21.0 | 0.00 | 0.00 | 0.00 | 41 | 1012.1 |
| 20260904200104 | 100 | 122 | 10.0 | 20.0 | 0.00 | 0.00 | 0.00 | 42 | 1012.2 |
| 20260904195604 | 101 | 171 | 10.0 | 18.0 | 0.00 | 0.00 | 0.00 | 42 | 1012.2 |
| 20260904194604 | 100 | 189 | 13.0 | 22.0 | 0.00 | 0.00 | 0.00 | 42 | 1012.3 |
| 20260904193604 | 100 | 152 | 14.0 | 22.0 | 0.00 | 0.00 | 0.00 | 42 | 1012.4 |
| 20260904193104 | 100 | 168 | 12.0 | 21.0 | 0.00 | 0.00 | 0.00 | 43 | 1012.5 |
| 20260904192104 | 100 | 163 | 10.0 | 16.0 | 0.00 | 0.00 | 0.00 | 43 | 1012.6 |
| 20260904191604 | 100 | 163 | 9.0 | 16.0 | 0.00 | 0.00 | 0.00 | 44 | 1012.6 |
| 20260904190604 | 99 | 149 | 11.0 | 16.0 | 0.00 | 0.00 | 0.00 | 45 | 1012.6 |
| 20260904190104 | 99 | 167 | 9.0 | 16.0 | 0.00 | 0.00 | 0.00 | 46 | 1012.8 |
| 20260904185604 | 98 | 162 | 10.0 | 16.0 | 0.00 | 0.00 | 0.00 | 46 | 1012.8 |
| 20260904184604 | 98 | 167 | 11.0 | 20.0 | 0.00 | 0.00 | 0.00 | 47 | 1013.0 |
| 20260904184104 | 98 | 180 | 7.0 | 20.0 | 0.00 | 0.00 | 0.00 | 48 | 1013.0 |
| 20260904183604 | 98 | 160 | 9.0 | 20.0 | 0.00 | 0.00 | 0.00 | 48 | 1013.0 |
| 20260904183104 | 98 | 161 | 10.0 | 18.0 | 0.00 | 0.00 | 0.00 | 48 | 1013.1 |
| 20260904182104 | 97 | 151 | 8.0 | 17.0 | 0.00 | 0.00 | 0.00 | 50 | 1013.3 |
| 20260904181604 | 97 | 193 | 8.0 | 16.0 | 0.00 | 0.00 | 0.00 | 50 | 1013.3 |
| 20260904181104 | 96 | 176 | 5.0 | 17.0 | 0.00 | 0.00 | 0.00 | 51 | 1013.3 |
| 20260904180604 | 96 | 151 | 12.0 | 20.0 | 0.00 | 0.00 | 0.00 | 50 | 1013.5 |
| 20260904175604 | 96 | 189 | 10.0 | 18.0 | 0.00 | 0.00 | 0.00 | 52 | 1013.5 |
| 20260904174604 | 95 | 182 | 9.0 | 22.0 | 0.00 | 0.00 | 0.00 | 52 | 1013.6 |
| 20260904174104 | 96 | 156 | 12.0 | 22.0 | 0.00 | 0.00 | 0.00 | 53 | 1013.8 |
| 20260904173604 | 95 | 145 | 9.0 | 16.0 | 0.00 | 0.00 | 0.00 | 54 | 1013.8 |
| 20260904172604 | 94 | 157 | 7.0 | 14.0 | 0.00 | 0.00 | 0.00 | 55 | 1014.0 |
| 20260904172104 | 94 | 152 | 8.0 | 16.0 | 0.00 | 0.00 | 0.00 | 55 | 1014.0 |
| 20260904171604 | 94 | 223 | 9.0 | 16.0 | 0.00 | 0.00 | 0.00 | 55 | 1014.0 |
| 20260904171104 | 93 | 195 | 9.0 | 16.0 | 0.00 | 0.00 | 0.00 | 57 | 1014.0 |
| 20260904170604 | 93 | 177 | 10.0 | 18.0 | 0.00 | 0.00 | 0.00 | 57 | 1014.1 |
| 20260904170104 | 92 | 190 | 10.0 | 18.0 | 0.00 | 0.00 | 0.00 | 57 | 1014.2 |
| 20260904165604 | 92 | 172 | 9.0 | 18.0 | 0.00 | 0.00 | 0.00 | 57 | 1014.3 |
| 20260904165104 | 92 | 163 | 9.0 | 16.0 | 0.00 | 0.00 | 0.00 | 58 | 1014.3 |
| 20260904164604 | 92 | 160 | 9.0 | 15.0 | 0.00 | 0.00 | 0.00 | 57 | 1014.3 |
| 20260904164104 | 92 | 188 | 10.0 | 16.0 | 0.00 | 0.00 | 0.00 | 57 | 1014.3 |
| 20260904163604 | 92 | 185 | 11.0 | 18.0 | 0.00 | 0.00 | 0.00 | 58 | 1014.4 |
| 20260904163104 | 92 | 159 | 7.0 | 20.0 | 0.00 | 0.00 | 0.00 | 59 | 1014.4 |
| 20260904162604 | 91 | 180 | 7.0 | 20.0 | 0.00 | 0.00 | 0.00 | 61 | 1014.4 |
| 20260904161604 | 90 | 192 | 12.0 | 20.0 | 0.00 | 0.00 | 0.00 | 61 | 1014.4 |
| 20260904161104 | 89 | 172 | 10.0 | 15.0 | 0.00 | 0.00 | 0.00 | 62 | 1014.4 |
| 20260904160104 | 89 | 170 | 10.0 | 17.0 | 0.00 | 0.00 | 0.00 | 63 | 1014.4 |
| 20260904155104 | 88 | 185 | 10.0 | 18.0 | 0.00 | 0.00 | 0.00 | 64 | 1014.3 |
| 20260904154604 | 88 | 171 | 11.0 | 18.0 | 0.00 | 0.00 | 0.00 | 64 | 1014.3 |
| 20260904154104 | 88 | 190 | 10.0 | 16.0 | 0.00 | 0.00 | 0.00 | 66 | 1014.3 |
| 20260904153104 | 87 | 172 | 9.0 | 18.0 | 0.00 | 0.00 | 0.00 | 66 | 1014.2 |
| 20260904152604 | 86 | 184 | 10.0 | 18.0 | 0.00 | 0.00 | 0.00 | 67 | 1014.3 |
| 20260904152103 | 86 | 164 | 12.0 | 17.0 | 0.00 | 0.00 | 0.00 | 68 | 1014.3 |
| 20260904151104 | 85 | 164 | 12.0 | 20.0 | 0.00 | 0.00 | 0.00 | 69 | 1014.2 |
| 20260904150604 | 85 | 179 | 11.0 | 21.0 | 0.00 | 0.00 | 0.00 | 69 | 1014.3 |
| 20260904150104 | 84 | 175 | 12.0 | 21.0 | 0.00 | 0.00 | 0.00 | 71 | 1014.2 |
| 20260904145604 | 84 | 181 | 11.0 | 20.0 | 0.00 | 0.00 | 0.00 | 71 | 1014.1 |
| 20260904145103 | 84 | 160 | 13.0 | 22.0 | 0.00 | 0.00 | 0.00 | 72 | 1014.0 |
| 20260904144604 | 83 | 168 | 14.0 | 22.0 | 0.00 | 0.00 | 0.00 | 72 | 1014.0 |
| 20260904144104 | 83 | 173 | 11.0 | 21.0 | 0.00 | 0.00 | 0.00 | 73 | 1014.0 |
| 20260904143604 | 83 | 168 | 13.0 | 21.0 | 0.00 | 0.00 | 0.00 | 73 | 1014.0 |
| 20260904143103 | 82 | 177 | 12.0 | 22.0 | 0.00 | 0.00 | 0.00 | 74 | 1014.0 |
| 20260904142604 | 82 | 172 | 12.0 | 22.0 | 0.00 | 0.00 | 0.00 | 74 | 1014.1 |
| 20260904142104 | 81 | 169 | 12.0 | 20.0 | 0.00 | 0.00 | 0.00 | 75 | 1014.1 |
| 20260904141104 | 81 | 171 | 14.0 | 23.0 | 0.00 | 0.00 | 0.00 | 76 | 1014.0 |
| 20260904140604 | 80 | 159 | 12.0 | 21.0 | 0.00 | 0.00 | 0.00 | 76 | 1014.1 |
| 20260904140104 | 80 | 192 | 13.0 | 21.0 | 0.00 | 0.00 | 0.00 | 77 | 1014.1 |
| 20260904135604 | 80 | 178 | 12.0 | 21.0 | 0.00 | 0.00 | 0.00 | 77 | 1014.1 |
| 20260904135104 | 80 | 160 | 13.0 | 21.0 | 0.00 | 0.00 | 0.00 | 77 | 1014.1 |
| 20260904134604 | 80 | 181 | 11.0 | 16.0 | 0.00 | 0.00 | 0.00 | 77 | 1014.2 |
| 20260904134104 | 80 | 175 | 11.0 | 18.0 | 0.00 | 0.00 | 0.00 | 77 | 1014.2 |
| 20260904133104 | 79 | 160 | 11.0 | 20.0 | 0.00 | 0.00 | 0.00 | 78 | 1014.2 |
| 20260904132103 | 79 | 166 | 10.0 | 20.0 | 0.00 | 0.00 | 0.00 | 79 | 1014.2 |
| 20260904131104 | 78 | 159 | 10.0 | 18.0 | 0.00 | 0.00 | 0.00 | 79 | 1014.1 |
| 20260904125103 | 78 | 159 | 9.0 | 13.0 | 0.00 | 0.00 | 0.00 | 80 | 1013.9 |
| 20260904124604 | 77 | 174 | 10.0 | 13.0 | 0.00 | 0.00 | 0.00 | 80 | 1013.9 |
| 20260904124104 | 77 | 166 | 8.0 | 13.0 | 0.00 | 0.00 | 0.00 | 80 | 1013.8 |
| 20260904123604 | 77 | 160 | 9.0 | 13.0 | 0.00 | 0.00 | 0.00 | 80 | 1013.8 |
| 20260904122104 | 77 | 168 | 7.0 | 12.0 | 0.00 | 0.00 | 0.00 | 80 | 1013.6 |
| 20260904121104 | 77 | 155 | 8.0 | 12.0 | 0.00 | 0.00 | 0.00 | 80 | 1013.5 |